TimeEDT,TemperatureF,Dew PointF,Humidity,Sea Level PressureIn,VisibilityMPH,Wind Direction,Wind SpeedMPH,Gust SpeedMPH,PrecipitationIn,Events,Conditions,WindDirDegrees,DateUTC
12:14 AM,37.9,30.7,75,30.42,10.0,Calm,Calm,-,N/A,,Clear,0,2012-10-13 04:14:00
12:35 AM,38.3,30.9,75,30.41,10.0,Calm,Calm,-,N/A,,Clear,0,2012-10-13 04:35:00
12:55 AM,38.3,30.9,75,30.41,10.0,Calm,Calm,-,N/A,,Clear,0,2012-10-13 04:55:00
1:15 AM,38.3,31.1,75,30.40,10.0,Calm,Calm,-,N/A,,Clear,0,2012-10-13 05:15:00
1:55 AM,36.9,31.1,80,30.39,10.0,Calm,Calm,-,N/A,,Clear,0,2012-10-13 05:55:00
2:35 AM,36.9,31.1,80,30.37,10.0,Calm,Calm,-,N/A,,Clear,0,2012-10-13 06:35:00
2:54 AM,36.1,31.1,82,30.38,10.0,Calm,Calm,-,N/A,,Clear,0,2012-10-13 06:54:00
3:15 AM,35.8,30.7,82,30.37,10.0,Calm,Calm,-,N/A,,Clear,0,2012-10-13 07:15:00
3:35 AM,35.6,30.9,83,30.36,10.0,Calm,Calm,-,N/A,,Clear,0,2012-10-13 07:35:00
3:54 AM,35.6,30.7,82,30.37,10.0,Calm,Calm,-,N/A,,Clear,0,2012-10-13 07:54:00
4:15 AM,35.6,31.1,84,30.37,10.0,Calm,Calm,-,N/A,,Scattered Clouds,0,2012-10-13 08:15:00
4:35 AM,36.1,31.3,83,30.35,10.0,ENE,3.5,-,N/A,,Scattered Clouds,70,2012-10-13 08:35:00
4:54 AM,35.4,30.7,83,30.35,10.0,Calm,Calm,-,N/A,,Clear,0,2012-10-13 08:54:00
5:15 AM,34.9,30.4,84,30.36,10.0,Calm,Calm,-,N/A,,Clear,0,2012-10-13 09:15:00
5:35 AM,34.7,30.7,85,30.35,10.0,Calm,Calm,-,N/A,,Clear,0,2012-10-13 09:35:00
5:55 AM,34.9,30.4,84,30.34,10.0,Calm,Calm,-,N/A,,Clear,0,2012-10-13 09:55:00
6:15 AM,35.4,31.1,84,30.34,10.0,Calm,Calm,-,N/A,,Clear,0,2012-10-13 10:15:00
6:34 AM,36.1,31.1,82,30.35,10.0,Calm,Calm,-,N/A,,Clear,0,2012-10-13 10:34:00
6:55 AM,35.4,31.1,84,30.33,10.0,Calm,Calm,-,N/A,,Clear,0,2012-10-13 10:55:00
7:15 AM,35.6,31.1,84,30.33,10.0,Calm,Calm,-,N/A,,Clear,0,2012-10-13 11:15:00
7:35 AM,36.0,31.6,84,30.32,10.0,Calm,Calm,-,N/A,,Clear,0,2012-10-13 11:35:00
7:55 AM,36.7,32.0,83,30.32,10.0,Calm,Calm,-,N/A,,Clear,0,2012-10-13 11:55:00
8:14 AM,38.7,32.5,79,30.31,10.0,Calm,Calm,-,N/A,,Clear,0,2012-10-13 12:14:00
8:35 AM,39.4,32.2,75,30.30,10.0,Calm,Calm,-,N/A,,Clear,0,2012-10-13 12:35:00
8:54 AM,39.4,32.9,78,30.29,10.0,Calm,Calm,-,N/A,,Clear,0,2012-10-13 12:54:00
9:15 AM,41.0,34.0,76,30.30,10.0,Calm,Calm,-,N/A,,Scattered Clouds,0,2012-10-13 13:15:00
9:55 AM,43.7,35.4,73,30.33,10.0,Calm,Calm,-,N/A,,Overcast,0,2012-10-13 13:55:00
10:35 AM,43.2,37.8,81,30.32,7.0,Calm,Calm,-,N/A,Rain,Light Rain,0,2012-10-13 14:35:00
10:55 AM,43.0,38.3,84,30.30,7.0,Calm,Calm,-,N/A,Rain,Light Rain,0,2012-10-13 14:55:00
11:35 AM,43.0,39.2,86,30.27,4.0,East,3.5,-,N/A,Rain,Light Rain,80,2012-10-13 15:35:00
11:55 AM,43.3,40.1,88,30.25,7.0,Calm,Calm,-,N/A,Rain,Light Rain,0,2012-10-13 15:55:00
12:14 PM,44.1,41.0,89,30.25,5.0,Calm,Calm,-,N/A,Rain,Light Rain,0,2012-10-13 16:14:00
12:35 PM,44.6,41.7,90,30.23,5.0,East,3.5,-,N/A,Rain,Light Rain,100,2012-10-13 16:35:00
12:54 PM,45.0,42.1,90,30.20,7.0,East,5.8,-,N/A,Rain,Light Rain,100,2012-10-13 16:54:00
1:34 PM,46.4,43.0,88,30.17,10.0,Calm,Calm,-,N/A,,Overcast,0,2012-10-13 17:34:00
1:55 PM,47.3,43.3,86,30.16,10.0,Calm,Calm,-,N/A,,Overcast,0,2012-10-13 17:55:00
2:15 PM,47.8,43.7,86,30.15,10.0,SSE,3.5,-,N/A,,Overcast,150,2012-10-13 18:15:00
2:34 PM,48.2,44.1,86,30.14,10.0,SSE,4.6,-,N/A,,Overcast,150,2012-10-13 18:34:00
2:55 PM,48.6,44.1,84,30.11,10.0,SSE,5.8,-,N/A,,Overcast,150,2012-10-13 18:55:00
3:15 PM,49.5,44.6,83,30.09,7.0,SSE,6.9,-,N/A,Rain,Rain,150,2012-10-13 19:15:00
3:34 PM,50.0,45.1,83,30.08,10.0,SSE,5.8,-,N/A,,Light Drizzle,160,2012-10-13 19:34:00
3:55 PM,50.9,45.3,81,30.06,10.0,SSE,5.8,-,N/A,,Light Drizzle,160,2012-10-13 19:55:00
4:35 PM,51.6,45.7,80,30.02,7.0,SSE,8.1,-,N/A,Rain,Light Rain,150,2012-10-13 20:35:00
4:55 PM,50.9,46.0,83,30.03,7.0,South,4.6,-,N/A,Rain,Rain,180,2012-10-13 20:55:00
5:15 PM,50.5,46.6,86,30.01,5.0,SSE,8.1,-,N/A,Rain,Light Rain,160,2012-10-13 21:15:00
5:35 PM,50.5,47.3,89,30.00,7.0,SSE,5.8,-,N/A,Rain,Rain,160,2012-10-13 21:35:00
5:55 PM,50.9,47.5,88,30.00,7.0,South,5.8,-,N/A,Rain,Light Rain,180,2012-10-13 21:55:00
6:14 PM,51.3,48.0,89,29.99,5.0,South,5.8,-,N/A,Rain,Rain,180,2012-10-13 22:14:00
6:35 PM,51.3,48.2,89,29.98,5.0,South,4.6,-,N/A,Rain,Light Rain,170,2012-10-13 22:35:00
6:55 PM,51.8,48.6,89,29.97,10.0,South,5.8,-,N/A,,Overcast,190,2012-10-13 22:55:00
7:15 PM,52.7,49.3,88,29.96,10.0,SSW,6.9,-,N/A,,Light Drizzle,200,2012-10-13 23:15:00
7:35 PM,53.8,49.8,86,29.96,10.0,South,6.9,-,N/A,,Overcast,190,2012-10-13 23:35:00
8:35 PM,55.4,51.8,88,29.94,10.0,SSW,9.2,-,N/A,,Light Drizzle,200,2012-10-14 00:35:00
8:54 PM,55.8,52.3,88,29.94,7.0,SSW,8.1,-,N/A,,Drizzle,200,2012-10-14 00:54:00
9:35 PM,56.5,54.3,92,29.92,3.0,SSW,10.4,17.3,N/A,Rain,Rain,210,2012-10-14 01:35:00
10:15 PM,57.7,55.6,92,29.92,4.0,SSW,9.2,-,N/A,Rain,Light Rain,210,2012-10-14 02:15:00
10:34 PM,57.7,55.4,92,29.92,3.0,SSW,9.2,-,N/A,Rain,Heavy Rain,200,2012-10-14 02:34:00
10:55 PM,58.5,56.5,93,29.92,4.0,SW,15.0,21.9,N/A,Rain,Rain,220,2012-10-14 02:55:00
11:15 PM,59.0,56.8,93,29.92,4.0,SSW,9.2,16.1,N/A,Rain,Light Rain,210,2012-10-14 03:15:00